When you browse on this site, cookies collect data to enhance your experience and personalize the content and advertising you see.
Visit our Privacy Policy to learn more. By continuing to use the site, you agree to this use of cookies and data.
  • In Österreich
  • Länderverzeichnis
  • Für 7 Tage
  • Wassertemperatur
  • Wetterkarte
  • News
  • Widgets
  • user-avatar
    Anmelden

    Stündliche Wetter Mikashevichi

    Heute, 15 September, Sonntag

    Zeit Temperatur Niederschläge Wind Luftdruck Luftfeuchtigkeit
    00:00 +9°C° 0 mm 3 m/S 758 mmHg 86%
    01:00 +9°C° 0 mm 2 m/S 758 mmHg 88%
    02:00 +8°C° 0 mm 2 m/S 758 mmHg 90%
    03:00 +8°C° 0 mm 2 m/S 757 mmHg 91%
    04:00 +8°C° 0 mm 2 m/S 757 mmHg 92%
    05:00 +7°C° 0 mm 2 m/S 757 mmHg 93%
    06:00 +9°C° 0 mm 2 m/S 757 mmHg 87%
    07:00 +10°C° 0 mm 3 m/S 757 mmHg 81%
    08:00 +11°C° 0 mm 3 m/S 757 mmHg 75%
    09:00 +13°C° 0 mm 4 m/S 756 mmHg 68%
    10:00 +14°C° 0 mm 4 m/S 756 mmHg 62%
    11:00 +16°C° 0 mm 5 m/S 755 mmHg 56%
    12:00 +16°C° 0 mm 5 m/S 754 mmHg 54%
    13:00 +17°C° 0 mm 6 m/S 754 mmHg 52%
    14:00 +17°C° 0 mm 6 m/S 753 mmHg 50%
    15:00 +17°C° 0 mm 5 m/S 752 mmHg 51%
    16:00 +17°C° 0 mm 5 m/S 751 mmHg 52%
    17:00 +17°C° 0 mm 4 m/S 751 mmHg 53%
    18:00 +15°C° 0 mm 4 m/S 750 mmHg 54%
    19:00 +15°C° 0 mm 5 m/S 750 mmHg 55%
    20:00 +14°C° 0 mm 5 m/S 749 mmHg 56%
    21:00 +14°C° 0 mm 5 m/S 749 mmHg 57%
    22:00 +14°C° 0 mm 5 m/S 748 mmHg 58%
    23:00 +14°C° 0 mm 5 m/S 748 mmHg 59%

    Morgen, 16 September, Montag

    Zeit Temperatur Niederschläge Wind Luftdruck Luftfeuchtigkeit
    00:00 +14°C° 0 mm 5 m/S 747 mmHg 61%
    01:00 +14°C° 0 mm 5 m/S 747 mmHg 63%
    02:00 +14°C° 0 mm 5 m/S 747 mmHg 65%
    03:00 +14°C° 0 mm 5 m/S 747 mmHg 65%
    04:00 +14°C° 0 mm 5 m/S 746 mmHg 65%
    05:00 +15°C° 0 mm 5 m/S 746 mmHg 65%
    06:00 +15°C° 0 mm 5 m/S 746 mmHg 64%
    07:00 +15°C° 0 mm 6 m/S 746 mmHg 63%
    08:00 +15°C° 0 mm 6 m/S 746 mmHg 62%
    09:00 +16°C° 0 mm 7 m/S 746 mmHg 59%
    10:00 +17°C° 0 mm 7 m/S 746 mmHg 56%
    11:00 +17°C° 0 mm 7 m/S 746 mmHg 53%
    12:00 +18°C° 0 mm 7 m/S 746 mmHg 50%
    13:00 +18°C° 0 mm 7 m/S 746 mmHg 48%
    14:00 +18°C° 0 mm 7 m/S 746 mmHg 45%
    15:00 +17°C° 0 mm 7 m/S 746 mmHg 48%
    16:00 +16°C° 0 mm 6 m/S 745 mmHg 52%
    17:00 +15°C° 0 mm 5 m/S 745 mmHg 55%
    18:00 +14°C° 0 mm 4 m/S 745 mmHg 60%
    19:00 +12°C° 0 mm 4 m/S 745 mmHg 66%
    20:00 +10°C° 0 mm 3 m/S 745 mmHg 71%
    21:00 +10°C° 0 mm 3 m/S 745 mmHg 74%
    22:00 +9°C° 0 mm 3 m/S 745 mmHg 78%
    23:00 +8°C° 0 mm 3 m/S 745 mmHg 81%

    übermorgen, 17 September, Dienstag

    Zeit Temperatur Niederschläge Wind Luftdruck Luftfeuchtigkeit
    00:00 +8°C° 0 mm 3 m/S 745 mmHg 83%
    01:00 +8°C° 0 mm 3 m/S 744 mmHg 86%
    02:00 +7°C° 0 mm 3 m/S 744 mmHg 88%
    03:00 +7°C° 0 mm 3 m/S 744 mmHg 88%
    04:00 +7°C° 0 mm 3 m/S 744 mmHg 89%
    05:00 +7°C° 0 mm 3 m/S 744 mmHg 89%
    06:00 +7°C° 0 mm 4 m/S 743 mmHg 82%
    07:00 +8°C° 0 mm 5 m/S 743 mmHg 75%
    08:00 +9°C° 0 mm 6 m/S 743 mmHg 68%
    09:00 +10°C° 0 mm 6 m/S 743 mmHg 64%
    10:00 +13°C° 0 mm 6 m/S 743 mmHg 60%
    11:00 +14°C° 0 mm 6 m/S 743 mmHg 56%
    12:00 +14°C° 0.1 mm 7 m/S 743 mmHg 55%
    13:00 +14°C° 0.1 mm 7 m/S 742 mmHg 54%
    14:00 +15°C° 0.1 mm 7 m/S 742 mmHg 53%
    15:00 +14°C° 0.2 mm 6 m/S 741 mmHg 57%
    16:00 +13°C° 0.2 mm 6 m/S 741 mmHg 61%
    17:00 +13°C° 0.2 mm 6 m/S 741 mmHg 64%
    18:00 +12°C° 0.2 mm 5 m/S 741 mmHg 71%
    19:00 +10°C° 0.2 mm 5 m/S 741 mmHg 77%
    20:00 +10°C° 0.2 mm 4 m/S 741 mmHg 83%
    21:00 +8°C° 0.1 mm 5 m/S 741 mmHg 84%
    22:00 +7°C° 0.1 mm 5 m/S 740 mmHg 86%
    23:00 +6°C° 0.1 mm 5 m/S 740 mmHg 87%

    18 September, Mittwoch

    Zeit Temperatur Niederschläge Wind Luftdruck Luftfeuchtigkeit
    00:00 +6°C° 0.2 mm 5 m/S 740 mmHg 88%
    01:00 +6°C° 0.2 mm 5 m/S 740 mmHg 88%
    02:00 +5°C° 0.2 mm 6 m/S 740 mmHg 88%
    03:00 +4°C° 0 mm 6 m/S 740 mmHg 88%
    04:00 +4°C° 0 mm 6 m/S 740 mmHg 88%
    05:00 +4°C° 0 mm 6 m/S 740 mmHg 89%
    06:00 +4°C° 0 mm 6 m/S 741 mmHg 87%
    07:00 +5°C° 0 mm 6 m/S 741 mmHg 86%
    08:00 +5°C° 0 mm 6 m/S 741 mmHg 84%
    09:00 +7°C° 0.2 mm 6 m/S 742 mmHg 81%
    10:00 +8°C° 0.2 mm 6 m/S 743 mmHg 78%
    11:00 +9°C° 0.2 mm 6 m/S 744 mmHg 75%
    12:00 +9°C° 0.2 mm 7 m/S 744 mmHg 73%
    13:00 +10°C° 0.2 mm 7 m/S 744 mmHg 72%
    14:00 +10°C° 0.2 mm 7 m/S 745 mmHg 70%
    15:00 +10°C° 0.1 mm 7 m/S 745 mmHg 71%
    16:00 +10°C° 0.1 mm 6 m/S 745 mmHg 72%
    17:00 +10°C° 0.1 mm 6 m/S 745 mmHg 73%
    18:00 +9°C° 0.2 mm 5 m/S 746 mmHg 76%
    19:00 +9°C° 0.2 mm 5 m/S 746 mmHg 80%
    20:00 +8°C° 0.2 mm 4 m/S 746 mmHg 84%
    21:00 +7°C° 0 mm 4 m/S 747 mmHg 86%
    22:00 +6°C° 0 mm 4 m/S 747 mmHg 89%
    23:00 +5°C° 0 mm 4 m/S 747 mmHg 91%

    19 September, Donnerstag

    Zeit Temperatur Niederschläge Wind Luftdruck Luftfeuchtigkeit
    00:00 +6°C° 0 mm 4 m/S 747 mmHg 91%
    01:00 +7°C° 0 mm 4 m/S 747 mmHg 91%
    02:00 +8°C° 0 mm 4 m/S 748 mmHg 90%
    03:00 +7°C° 0 mm 4 m/S 748 mmHg 90%
    04:00 +7°C° 0 mm 4 m/S 748 mmHg 90%
    05:00 +7°C° 0 mm 4 m/S 748 mmHg 90%
    06:00 +7°C° 0 mm 4 m/S 748 mmHg 88%
    07:00 +7°C° 0 mm 4 m/S 749 mmHg 87%
    08:00 +7°C° 0 mm 4 m/S 749 mmHg 85%
    09:00 +8°C° 0 mm 4 m/S 749 mmHg 76%
    10:00 +10°C° 0 mm 4 m/S 749 mmHg 67%
    11:00 +12°C° 0 mm 4 m/S 750 mmHg 58%
    12:00 +12°C° 0.2 mm 4 m/S 750 mmHg 58%
    13:00 +13°C° 0.2 mm 4 m/S 749 mmHg 58%
    14:00 +13°C° 0.2 mm 4 m/S 749 mmHg 58%
    15:00 +13°C° 0.3 mm 4 m/S 749 mmHg 61%
    16:00 +12°C° 0.3 mm 4 m/S 749 mmHg 65%
    17:00 +12°C° 0.3 mm 3 m/S 749 mmHg 68%
    18:00 +10°C° 0.2 mm 3 m/S 750 mmHg 74%
    19:00 +9°C° 0.2 mm 3 m/S 750 mmHg 81%
    20:00 +7°C° 0.2 mm 2 m/S 750 mmHg 87%
    21:00 +7°C° 0 mm 2 m/S 751 mmHg 89%
    22:00 +6°C° 0 mm 2 m/S 751 mmHg 91%
    23:00 +6°C° 0 mm 2 m/S 751 mmHg 93%

    20 September, Freitag

    Zeit Temperatur Niederschläge Wind Luftdruck Luftfeuchtigkeit
    00:00 +5°C° 0 mm 2 m/S 751 mmHg 93%
    01:00 +5°C° 0 mm 2 m/S 751 mmHg 93%
    02:00 +4°C° 0 mm 2 m/S 751 mmHg 93%
    03:00 +4°C° 0 mm 2 m/S 751 mmHg 93%
    04:00 +3°C° 0 mm 2 m/S 752 mmHg 94%
    05:00 +3°C° 0 mm 2 m/S 752 mmHg 94%
    06:00 +4°C° 0 mm 2 m/S 752 mmHg 92%
    07:00 +5°C° 0 mm 2 m/S 752 mmHg 89%
    08:00 +5°C° 0 mm 2 m/S 752 mmHg 86%
    09:00 +7°C° 0.1 mm 3 m/S 752 mmHg 81%
    10:00 +8°C° 0.1 mm 3 m/S 753 mmHg 77%
    11:00 +8°C° 0.1 mm 4 m/S 753 mmHg 72%
    12:00 +10°C° 0.3 mm 4 m/S 753 mmHg 72%
    13:00 +10°C° 0.3 mm 4 m/S 753 mmHg 72%
    14:00 +10°C° 0.3 mm 4 m/S 753 mmHg 72%
    15:00 +10°C° 0.1 mm 4 m/S 753 mmHg 70%
    16:00 +10°C° 0.1 mm 4 m/S 753 mmHg 68%
    17:00 +10°C° 0.1 mm 4 m/S 754 mmHg 67%
    18:00 +8°C° 0 mm 3 m/S 754 mmHg 70%
    19:00 +5°C° 0 mm 3 m/S 754 mmHg 74%
    20:00 +5°C° 0 mm 2 m/S 755 mmHg 78%
    21:00 +4°C° 0 mm 2 m/S 755 mmHg 80%
    22:00 +4°C° 0 mm 2 m/S 755 mmHg 81%
    23:00 +3°C° 0 mm 2 m/S 755 mmHg 83%
    Mehr zeigen